FW6569 Weather Reports


Display with metric or nautical units.
time (UTC)temp
F
wind
direction
speed
MPH
gust
MPH
rain 1hr
in
rain 24hr
in
rain mn
in
humidity
%
barometer
mb
20260904134519 87 238 2.0 3.0 0.00 0.00 0.00 72 1017.8
20260904133540 87 203 3.0 3.0 0.00 0.00 0.00 70 1017.8
20260904132519 86 0.0 0.0 0.00 0.00 0.00 74 1017.8
20260904131519 85 152 1.0 2.0 0.00 0.00 0.00 77 1017.7
20260904130520 83 0.0 0.0 0.00 0.00 0.00 80 1017.8
20260904125539 81 0.0 0.0 0.00 0.00 0.00 87 1017.8
20260904124520 78 0.0 0.0 0.00 0.00 0.00 93 1017.8
20260904123519 76 0.0 0.0 0.00 0.00 0.00 98 1017.6
20260904122519 75 0.0 0.0 0.00 0.00 0.00 99 1017.5
20260904121520 73 0.0 0.0 0.00 0.00 0.00 99 1017.4
20260904120520 73 0.0 0.0 0.00 0.00 0.00 99 1017.1
20260904115519 72 0.0 0.0 0.00 0.00 0.00 99 1017.0
20260904114520 71 0.0 0.0 0.00 0.00 0.00 100 1016.7
20260904113519 71 0.0 0.0 0.00 0.00 0.00 100 1016.7
20260904112520 70 0.0 0.0 0.00 0.00 0.00 99 1016.6
20260904111520 71 0.0 0.0 0.00 0.00 0.00 99 1016.5
20260904110520 70 0.0 0.0 0.00 0.00 0.00 99 1016.5
20260904105520 71 0.0 0.0 0.00 0.00 0.00 99 1016.5
20260904104519 71 0.0 0.0 0.00 0.00 0.00 99 1016.5
20260904103520 71 0.0 0.0 0.00 0.00 0.00 99 1016.5
20260904102520 71 0.0 0.0 0.00 0.00 0.00 99 1016.6
20260904101540 71 0.0 0.0 0.00 0.00 0.00 99 1016.5
20260904100520 71 0.0 0.0 0.00 0.00 0.00 99 1016.5
20260904095520 71 0.0 0.0 0.00 0.00 0.00 99 1016.5
20260904094520 71 0.0 0.0 0.00 0.00 0.00 99 1016.4
20260904093521 71 0.0 0.0 0.00 0.00 0.00 99 1016.4
20260904092541 71 0.0 0.0 0.00 0.00 0.00 99 1016.3
20260904091540 72 0.0 0.0 0.00 0.00 0.00 99 1016.3
20260904090520 72 0.0 0.0 0.00 0.00 0.00 99 1016.4
20260904085521 72 0.0 0.0 0.00 0.00 0.00 99 1016.4
20260904084540 72 0.0 0.0 0.00 0.00 0.00 99 1016.4
20260904083520 72 0.0 0.0 0.00 0.00 0.00 99 1016.4
20260904082520 72 0.0 0.0 0.00 0.00 0.00 99 1016.4
20260904081520 72 0.0 0.0 0.00 0.00 0.00 99 1016.4
20260904080520 72 0.0 0.0 0.00 0.00 0.00 99 1016.3
20260904075520 72 0.0 0.0 0.00 0.00 0.00 99 1016.4
20260904074520 72 0.0 0.0 0.00 0.00 0.00 99 1016.4
20260904073540 73 0.0 0.0 0.00 0.00 0.00 99 1016.5
20260904072520 73 0.0 0.0 0.00 0.00 0.00 99 1016.5
20260904071520 73 0.0 0.0 0.00 0.00 0.00 99 1016.6
20260904070520 73 0.0 0.0 0.00 0.00 0.00 99 1016.7
20260904065541 73 0.0 0.0 0.00 0.00 0.00 99 1016.7
20260904064520 73 0.0 0.0 0.00 0.00 0.00 98 1016.7
20260904063520 73 0.0 0.0 0.00 0.00 0.00 98 1016.7
20260904062520 73 0.0 0.0 0.00 0.00 0.00 98 1016.7
20260904061520 74 0.0 0.0 0.00 0.00 0.00 98 1016.8
20260904060520 74 0.0 0.0 0.00 0.00 0.00 98 1016.8
20260904055520 74 0.0 0.0 0.00 0.00 0.00 98 1016.9
20260904054521 74 0.0 0.0 0.00 0.00 0.00 98 1016.9
20260904053520 74 0.0 0.0 0.00 0.00 0.00 98 1016.9
20260904052521 74 0.0 0.0 0.00 0.00 0.00 98 1016.9
20260904051520 74 0.0 0.0 0.00 0.00 0.00 98 1016.9
20260904050521 74 0.0 0.0 0.00 0.00 0.00 97 1016.9
20260904045521 74 0.0 0.0 0.00 0.00 0.00 97 1016.9
20260904044521 75 0.0 0.0 0.00 0.00 0.00 97 1016.9
20260904043521 74 0.0 0.0 0.00 0.00 0.00 97 1016.9
20260904042541 75 0.0 0.0 0.00 0.00 0.00 97 1016.8
20260904041520 75 0.0 0.0 0.00 0.00 0.00 97 1016.8
20260904040521 75 0.0 0.0 0.00 0.00 0.00 97 1016.8
20260904035521 75 0.0 0.0 0.00 0.00 0.00 97 1016.7
20260904034521 76 0.0 0.0 0.00 0.00 0.00 97 1016.8
20260904033521 76 352 0.0 2.0 0.00 0.00 0.00 97 1016.9
20260904032520 76 0.0 0.0 0.00 0.00 0.00 96 1016.8
20260904031521 76 0.0 0.0 0.00 0.00 0.00 96 1016.8
20260904030521 76 0.0 0.0 0.00 0.00 0.00 96 1016.7
20260904025520 76 0.0 0.0 0.00 0.00 0.00 96 1016.8
20260904024521 77 0.0 0.0 0.00 0.00 0.00 96 1016.9
20260904023521 77 0.0 0.0 0.00 0.00 0.00 95 1016.8
20260904022521 77 0.0 0.0 0.00 0.00 0.00 95 1016.9
20260904021521 77 0.0 0.0 0.00 0.00 0.00 95 1017.0
20260904020521 77 0.0 0.0 0.00 0.00 0.00 94 1016.9
20260904015521 78 0.0 0.0 0.00 0.00 0.00 93 1016.9
20260904014541 78 0.0 0.0 0.00 0.00 0.00 93 1017.0
20260904013541 78 0.0 0.0 0.00 0.00 0.00 92 1017.0
20260904012521 79 0.0 0.0 0.00 0.00 0.00 91 1017.0
20260904011542 79 0.0 0.0 0.00 0.00 0.00 89 1016.8
20260904010521 79 0.0 0.0 0.00 0.00 0.00 88 1016.7
20260904005521 80 0.0 0.0 0.00 0.00 0.00 87 1016.6
20260904004521 81 0.0 0.0 0.00 0.00 0.00 86 1016.5
20260904003521 81 0.0 0.0 0.00 0.00 0.00 86 1016.4
20260904002521 82 0.0 0.0 0.00 0.00 0.00 84 1016.3
20260904001521 83 0.0 0.0 0.00 0.00 0.00 82 1016.2
20260904000521 84 0.0 0.0 0.00 0.00 0.00 80 1016.0
20260903235541 85 0.0 0.0 0.00 0.00 0.00 78 1016.0
20260903234521 86 0.0 0.0 0.00 0.00 0.00 75 1015.9
20260903233521 88 0.0 0.0 0.00 0.00 0.00 72 1016.0
20260903232602 90 0.0 0.0 0.00 0.00 0.00 68 1016.0
20260903231521 92 0.0 0.0 0.00 0.00 0.00 67 1015.8
20260903230601 94 0.0 1.0 0.00 0.00 0.00 64 1015.7
20260903225521 95 0.0 0.0 0.00 0.00 0.00 60 1015.8
20260903224521 95 260 0.0 2.0 0.00 0.00 0.00 58 1015.8
20260903223542 95 285 0.0 2.0 0.00 0.00 0.00 56 1015.7
20260903222521 96 256 1.0 3.0 0.00 0.00 0.00 56 1015.6
20260903221521 96 300 2.0 4.0 0.00 0.00 0.00 54 1015.6
20260903220542 96 227 2.0 4.0 0.00 0.00 0.00 54 1015.6
20260903215522 96 305 1.0 2.0 0.00 0.00 0.00 56 1015.6
20260903214521 96 216 4.0 8.0 0.00 0.00 0.00 53 1015.6
20260903213522 96 212 3.0 6.0 0.00 0.00 0.00 54 1015.6
20260903212522 96 277 3.0 7.0 0.00 0.00 0.00 53 1015.7
20260903211522 96 237 3.0 7.0 0.00 0.00 0.00 54 1015.7
20260903210521 96 221 5.0 9.0 0.00 0.00 0.00 53 1015.8
20260903205541 96 233 3.0 6.0 0.00 0.00 0.00 53 1015.9
20260903204522 97 232 4.0 6.0 0.00 0.00 0.00 52 1016.0
20260903203551 97 216 4.0 5.0 0.00 0.00 0.00 54 1016.1
20260903202522 96 215 4.0 7.0 0.00 0.00 0.00 55 1016.2
20260903201532 97 234 5.0 8.0 0.00 0.00 0.00 53 1016.3
20260903200521 97 252 3.0 4.0 0.00 0.00 0.00 53 1016.4
20260903195521 96 227 4.0 8.0 0.00 0.00 0.00 54 1016.6
20260903194521 96 206 5.0 8.0 0.00 0.00 0.00 53 1016.7
20260903193522 96 276 4.0 6.0 0.00 0.00 0.00 56 1016.9
20260903192542 95 272 3.0 6.0 0.00 0.00 0.00 54 1017.0
20260903191621 94 262 3.0 4.0 0.00 0.00 0.00 59 1017.1
20260903190532 93 252 2.0 4.0 0.00 0.00 0.00 60 1017.2
20260903185522 93 233 3.0 6.0 0.00 0.00 0.00 60 1017.2
20260903184522 95 203 6.0 8.0 0.00 0.00 0.00 59 1017.2
20260903183542 94 242 3.0 6.0 0.00 0.00 0.00 56 1017.2
20260903182652 94 262 5.0 10.0 0.00 0.00 0.00 56 1017.3
20260903181541 94 228 4.0 7.0 0.00 0.00 0.00 56 1017.3
20260903180542 94 226 3.0 4.0 0.00 0.00 0.00 56 1017.4
20260903175712 93 217 5.0 10.0 0.00 0.00 0.00 59 1017.5
20260903174532 92 213 5.0 11.0 0.00 0.00 0.00 60 1017.6
20260903173542 93 195 5.0 6.0 0.00 0.00 0.00 60 1017.7
20260903172522 93 183 5.0 6.0 0.00 0.00 0.00 59 1017.8
20260903171602 93 218 5.0 8.0 0.00 0.00 0.00 61 1017.9
20260903170633 92 193 6.0 8.0 0.00 0.00 0.00 62 1018.1
20260903165542 92 183 5.0 6.0 0.00 0.01 0.00 62 1018.1
20260903164522 92 208 5.0 6.0 0.00 0.01 0.00 63 1018.2
20260903163542 91 223 4.0 9.0 0.00 0.01 0.00 65 1018.3
20260903162652 91 212 5.0 7.0 0.00 0.01 0.00 63 1018.4
20260903161602 89 204 6.0 8.0 0.00 0.01 0.00 66 1018.4
20260903160522 91 205 4.0 5.0 0.00 0.01 0.00 64 1018.5
20260903155702 90 228 5.0 10.0 0.00 0.01 0.00 65 1018.5
20260903154603 90 215 5.0 8.0 0.00 0.01 0.00 68 1018.4
20260903153532 89 216 4.0 6.0 0.00 0.01 0.00 66 1018.5
20260903152542 90 235 6.0 7.0 0.00 0.00 0.00 64 1018.4
20260903151532 90 214 4.0 6.0 0.00 0.00 0.00 66 1018.4
20260903150532 89 236 4.0 7.0 0.00 0.00 0.00 68 1018.4
20260903145552 88 204 4.0 6.0 0.00 0.00 0.00 71 1018.4
20260903144552 87 265 4.0 6.0 0.00 0.00 0.00 70 1018.4
20260903143523 87 199 3.0 5.0 0.00 0.00 0.00 73 1018.4
20260903142532 86 215 4.0 6.0 0.00 0.00 0.00 74 1018.3
20260903141542 86 210 4.0 6.0 0.00 0.00 0.00 74 1018.3
20260903140523 85 223 4.0 6.0 0.00 0.00 0.00 75 1018.4
20260903135542 84 216 4.0 6.0 0.00 0.00 0.00 76 1018.5